Year,Month,Day,Hour,Minute,Value (Times are PST for temperature in C)
2011,08,17,00,00,13.80
2011,08,17,00,01,13.80
2011,08,17,00,02,13.80
2011,08,17,00,03,13.80
2011,08,17,00,04,13.80
2011,08,17,00,05,13.80
2011,08,17,00,06,13.90
2011,08,17,00,07,13.90
2011,08,17,00,08,13.90
2011,08,17,00,09,13.90
2011,08,17,00,10,13.80
2011,08,17,00,11,13.80
2011,08,17,00,12,13.80
2011,08,17,00,13,13.80
2011,08,17,00,14,13.80
2011,08,17,00,15,13.80
2011,08,17,00,16,13.80
2011,08,17,00,17,13.70
2011,08,17,00,18,13.70
2011,08,17,00,19,13.70
2011,08,17,00,20,13.70
2011,08,17,00,21,13.60
2011,08,17,00,22,13.60
2011,08,17,00,23,13.60
2011,08,17,00,24,13.60
2011,08,17,00,25,13.60
2011,08,17,00,26,13.60
2011,08,17,00,27,13.60
2011,08,17,00,28,13.60
2011,08,17,00,29,13.60
2011,08,17,00,30,13.60
2011,08,17,00,31,13.60
2011,08,17,00,32,13.60
2011,08,17,00,33,13.60
2011,08,17,00,34,13.60
2011,08,17,00,35,13.60
2011,08,17,00,36,13.50
2011,08,17,00,37,13.50
2011,08,17,00,38,13.50
2011,08,17,00,39,13.40
2011,08,17,00,40,13.40
2011,08,17,00,41,13.40
2011,08,17,00,42,13.40
2011,08,17,00,43,13.40
2011,08,17,00,44,13.40
2011,08,17,00,45,13.40
2011,08,17,00,46,13.30
2011,08,17,00,47,13.30
2011,08,17,00,48,13.30
2011,08,17,00,49,13.30
2011,08,17,00,50,13.20
2011,08,17,00,51,13.20
2011,08,17,00,52,13.20
2011,08,17,00,53,13.20
2011,08,17,00,54,13.20
2011,08,17,00,55,13.20
2011,08,17,00,56,13.20
2011,08,17,00,57,13.20
2011,08,17,00,58,13.20
2011,08,17,00,59,13.30
2011,08,17,01,00,13.30
2011,08,17,01,01,13.30
2011,08,17,01,02,13.30
2011,08,17,01,03,13.30
2011,08,17,01,04,13.30
2011,08,17,01,05,13.30
2011,08,17,01,06,13.30
2011,08,17,01,07,13.30
2011,08,17,01,08,13.30
2011,08,17,01,09,13.30
2011,08,17,01,10,13.30
2011,08,17,01,11,13.30
2011,08,17,01,12,13.30
2011,08,17,01,13,13.30
2011,08,17,01,14,13.30
2011,08,17,01,15,13.30
2011,08,17,01,16,13.30
2011,08,17,01,17,13.30
2011,08,17,01,18,13.30
2011,08,17,01,19,13.30
2011,08,17,01,20,13.40
2011,08,17,01,21,13.40
2011,08,17,01,22,13.40
2011,08,17,01,23,13.40
2011,08,17,01,24,13.30
2011,08,17,01,25,13.30
2011,08,17,01,26,13.30
2011,08,17,01,27,13.20
2011,08,17,01,28,13.20
2011,08,17,01,29,13.20
2011,08,17,01,30,13.20
2011,08,17,01,31,13.20
2011,08,17,01,32,13.20
2011,08,17,01,33,13.20
2011,08,17,01,34,13.20
2011,08,17,01,35,13.20
2011,08,17,01,36,13.20
2011,08,17,01,37,13.20
2011,08,17,01,38,13.20
2011,08,17,01,39,13.20
2011,08,17,01,40,13.20
2011,08,17,01,41,13.20
2011,08,17,01,42,13.20
2011,08,17,01,43,13.20
2011,08,17,01,44,13.20
2011,08,17,01,45,13.20
2011,08,17,01,46,13.20
2011,08,17,01,47,13.20
2011,08,17,01,48,13.20
2011,08,17,01,49,13.10
2011,08,17,01,50,13.10
2011,08,17,01,51,13.10
2011,08,17,01,52,13.10
2011,08,17,01,53,13.10
2011,08,17,01,54,13.00
2011,08,17,01,55,13.00
2011,08,17,01,56,12.90
2011,08,17,01,57,12.90
2011,08,17,01,58,12.90
2011,08,17,01,59,12.90
2011,08,17,02,00,12.80
2011,08,17,02,01,12.80
2011,08,17,02,02,12.80
2011,08,17,02,03,12.80
2011,08,17,02,04,12.70
2011,08,17,02,05,12.70
2011,08,17,02,06,12.70
2011,08,17,02,07,12.70
2011,08,17,02,08,12.70
2011,08,17,02,09,12.70
2011,08,17,02,10,12.70
2011,08,17,02,11,12.70
2011,08,17,02,12,12.70
2011,08,17,02,13,12.70
2011,08,17,02,14,12.70
2011,08,17,02,15,12.70
2011,08,17,02,16,12.70
2011,08,17,02,17,12.80
2011,08,17,02,18,12.80
2011,08,17,02,19,12.80
2011,08,17,02,20,12.80
2011,08,17,02,21,12.80
2011,08,17,02,22,12.80
2011,08,17,02,23,12.80
2011,08,17,02,24,12.70
2011,08,17,02,25,12.70
2011,08,17,02,26,12.70
2011,08,17,02,27,12.70
2011,08,17,02,28,12.70
2011,08,17,02,29,12.60
2011,08,17,02,30,12.60
2011,08,17,02,31,12.60
2011,08,17,02,32,12.60
2011,08,17,02,33,12.60
2011,08,17,02,34,12.60
2011,08,17,02,35,12.60
2011,08,17,02,36,12.60
2011,08,17,02,37,12.60
2011,08,17,02,38,12.60
2011,08,17,02,39,12.60
2011,08,17,02,40,12.60
2011,08,17,02,41,12.60
2011,08,17,02,42,12.50
2011,08,17,02,43,12.50
2011,08,17,02,44,12.60
2011,08,17,02,45,12.60
2011,08,17,02,46,12.60
2011,08,17,02,47,12.70
2011,08,17,02,48,12.70
2011,08,17,02,49,12.70
2011,08,17,02,50,12.70
2011,08,17,02,51,12.70
2011,08,17,02,52,12.70
2011,08,17,02,53,12.60
2011,08,17,02,54,12.50
2011,08,17,02,55,12.50
2011,08,17,02,56,12.40
2011,08,17,02,57,12.30
2011,08,17,02,58,12.20
2011,08,17,02,59,12.20
2011,08,17,03,00,12.10
2011,08,17,03,01,12.10
2011,08,17,03,02,12.00
2011,08,17,03,03,12.00
2011,08,17,03,04,12.00
2011,08,17,03,05,12.10
2011,08,17,03,06,12.10
2011,08,17,03,07,12.20
2011,08,17,03,08,12.20
2011,08,17,03,09,12.20
2011,08,17,03,10,12.30
2011,08,17,03,11,12.30
2011,08,17,03,12,12.40
2011,08,17,03,13,12.40
2011,08,17,03,14,12.50
2011,08,17,03,15,12.60
2011,08,17,03,16,12.60
2011,08,17,03,17,12.70
2011,08,17,03,18,12.80
2011,08,17,03,19,12.80
2011,08,17,03,20,12.80
2011,08,17,03,21,12.90
2011,08,17,03,22,12.90
2011,08,17,03,23,12.90
2011,08,17,03,24,12.90
2011,08,17,03,25,12.90
2011,08,17,03,26,12.90
2011,08,17,03,27,12.90
2011,08,17,03,28,12.80
2011,08,17,03,29,12.80
2011,08,17,03,30,12.70
2011,08,17,03,31,12.60
2011,08,17,03,32,12.50
2011,08,17,03,33,12.50
2011,08,17,03,34,12.40
2011,08,17,03,35,12.40
2011,08,17,03,36,12.40
2011,08,17,03,37,12.40
2011,08,17,03,38,12.50
2011,08,17,03,39,12.50
2011,08,17,03,40,12.60
2011,08,17,03,41,12.60
2011,08,17,03,42,12.70
2011,08,17,03,43,12.70
2011,08,17,03,44,12.80
2011,08,17,03,45,12.80
2011,08,17,03,46,12.80
2011,08,17,03,47,12.90
2011,08,17,03,48,12.90
2011,08,17,03,49,12.80
2011,08,17,03,50,12.80
2011,08,17,03,51,12.70
2011,08,17,03,52,12.60
2011,08,17,03,53,12.50
2011,08,17,03,54,12.40
2011,08,17,03,55,12.40
2011,08,17,03,56,12.40
2011,08,17,03,57,12.50
2011,08,17,03,58,12.50
2011,08,17,03,59,12.60
2011,08,17,04,00,12.60
2011,08,17,04,01,12.60
2011,08,17,04,02,12.60
2011,08,17,04,03,12.60
2011,08,17,04,04,12.70
2011,08,17,04,05,12.80
2011,08,17,04,06,12.80
2011,08,17,04,07,12.90
2011,08,17,04,08,12.90
2011,08,17,04,09,13.00
2011,08,17,04,10,13.00
2011,08,17,04,11,13.00
2011,08,17,04,12,13.00
2011,08,17,04,13,13.00
2011,08,17,04,14,12.90
2011,08,17,04,15,12.80
2011,08,17,04,16,12.60
2011,08,17,04,17,12.40
2011,08,17,04,18,12.40
2011,08,17,04,19,12.40
2011,08,17,04,20,12.50
2011,08,17,04,21,12.60
2011,08,17,04,22,12.60
2011,08,17,04,23,12.50
2011,08,17,04,24,12.60
2011,08,17,04,25,12.70
2011,08,17,04,26,12.70
2011,08,17,04,27,12.70
2011,08,17,04,28,12.60
2011,08,17,04,29,12.60
2011,08,17,04,30,12.60
2011,08,17,04,31,12.60
2011,08,17,04,32,12.60
2011,08,17,04,33,12.60
2011,08,17,04,34,12.70
2011,08,17,04,35,12.60
2011,08,17,04,36,12.60
2011,08,17,04,37,12.60
2011,08,17,04,38,12.50
2011,08,17,04,39,12.50
2011,08,17,04,40,12.50
2011,08,17,04,41,12.50
2011,08,17,04,42,12.40
2011,08,17,04,43,12.40
2011,08,17,04,44,12.30
2011,08,17,04,45,12.30
2011,08,17,04,46,12.30
2011,08,17,04,47,12.30
2011,08,17,04,48,12.30
2011,08,17,04,49,12.10
2011,08,17,04,50,12.00
2011,08,17,04,51,11.90
2011,08,17,04,52,11.90
2011,08,17,04,53,11.80
2011,08,17,04,54,11.80
2011,08,17,04,55,11.80
2011,08,17,04,56,11.70
2011,08,17,04,57,11.50
2011,08,17,04,58,11.40
2011,08,17,04,59,11.30
2011,08,17,05,00,11.30
2011,08,17,05,01,11.20
2011,08,17,05,02,11.20
2011,08,17,05,03,11.20
2011,08,17,05,04,11.30
2011,08,17,05,05,11.30
2011,08,17,05,06,11.50
2011,08,17,05,07,11.60
2011,08,17,05,08,11.70
2011,08,17,05,09,11.90
2011,08,17,05,10,12.00
2011,08,17,05,11,12.10
2011,08,17,05,12,12.10
2011,08,17,05,13,12.10
2011,08,17,05,14,12.20
2011,08,17,05,15,12.20
2011,08,17,05,16,12.20
2011,08,17,05,17,12.20
2011,08,17,05,18,12.30
2011,08,17,05,19,12.30
2011,08,17,05,20,12.30
2011,08,17,05,21,12.30
2011,08,17,05,22,12.20
2011,08,17,05,23,12.20
2011,08,17,05,24,12.10
2011,08,17,05,25,12.10
2011,08,17,05,26,12.10
2011,08,17,05,27,12.10
2011,08,17,05,28,12.10
2011,08,17,05,29,12.10
2011,08,17,05,30,12.10
2011,08,17,05,31,12.10
2011,08,17,05,32,12.10
2011,08,17,05,33,12.10
2011,08,17,05,34,12.10
2011,08,17,05,35,12.10
2011,08,17,05,36,12.00
2011,08,17,05,37,12.00
2011,08,17,05,38,12.00
2011,08,17,05,39,11.90
2011,08,17,05,40,11.90
2011,08,17,05,41,11.90
2011,08,17,05,42,11.80
2011,08,17,05,43,11.70
2011,08,17,05,44,11.60
2011,08,17,05,45,11.60
2011,08,17,05,46,11.60
2011,08,17,05,47,11.60
2011,08,17,05,48,11.60
2011,08,17,05,49,11.60
2011,08,17,05,50,11.70
2011,08,17,05,51,11.70
2011,08,17,05,52,11.70
2011,08,17,05,53,11.70
2011,08,17,05,54,11.70
2011,08,17,05,55,11.70
2011,08,17,05,56,11.70
2011,08,17,05,57,11.70
2011,08,17,05,58,11.80
2011,08,17,05,59,11.80
2011,08,17,06,00,11.90
2011,08,17,06,01,12.00
2011,08,17,06,02,12.10
2011,08,17,06,03,12.20
2011,08,17,06,04,12.20
2011,08,17,06,05,12.10
2011,08,17,06,06,12.00
2011,08,17,06,07,11.90
2011,08,17,06,08,11.80
2011,08,17,06,09,11.70
2011,08,17,06,10,11.60
2011,08,17,06,11,11.50
2011,08,17,06,12,11.50
2011,08,17,06,13,11.50
2011,08,17,06,14,11.50
2011,08,17,06,15,11.60
2011,08,17,06,16,11.70
2011,08,17,06,17,11.80
2011,08,17,06,18,11.80
2011,08,17,06,19,11.90
2011,08,17,06,20,11.90
2011,08,17,06,21,11.90
2011,08,17,06,22,11.90
2011,08,17,06,23,11.90
2011,08,17,06,24,11.90
2011,08,17,06,25,11.90
2011,08,17,06,26,11.90
2011,08,17,06,27,11.90
2011,08,17,06,28,12.00
2011,08,17,06,29,12.00
2011,08,17,06,30,12.00
2011,08,17,06,31,12.10
2011,08,17,06,32,12.00
2011,08,17,06,33,12.00
2011,08,17,06,34,11.90
2011,08,17,06,35,11.90
2011,08,17,06,36,11.80
2011,08,17,06,37,11.80
2011,08,17,06,38,11.80
2011,08,17,06,39,11.70
2011,08,17,06,40,11.70
2011,08,17,06,41,11.60
2011,08,17,06,42,11.60
2011,08,17,06,43,11.60
2011,08,17,06,44,11.60
2011,08,17,06,45,11.60
2011,08,17,06,46,11.60
2011,08,17,06,47,11.50
2011,08,17,06,48,11.50
2011,08,17,06,49,11.50
2011,08,17,06,50,11.50
2011,08,17,06,51,11.50
2011,08,17,06,52,11.60
2011,08,17,06,53,11.60
2011,08,17,06,54,11.70
2011,08,17,06,55,11.70
2011,08,17,06,56,11.80
2011,08,17,06,57,11.80
2011,08,17,06,58,11.80
2011,08,17,06,59,11.90
2011,08,17,07,00,11.90
2011,08,17,07,01,11.90
2011,08,17,07,02,11.80
2011,08,17,07,03,11.80
2011,08,17,07,04,11.70
2011,08,17,07,05,11.70
2011,08,17,07,06,11.80
2011,08,17,07,07,11.80
2011,08,17,07,08,11.80
2011,08,17,07,09,11.90
2011,08,17,07,10,12.00
2011,08,17,07,11,12.00
2011,08,17,07,12,12.10
2011,08,17,07,13,12.20
2011,08,17,07,14,12.20
2011,08,17,07,15,12.30
2011,08,17,07,16,12.30
2011,08,17,07,17,12.30
2011,08,17,07,18,12.40
2011,08,17,07,19,12.40
2011,08,17,07,20,12.50
2011,08,17,07,21,12.60
2011,08,17,07,22,12.60
2011,08,17,07,23,12.60
2011,08,17,07,24,12.70
2011,08,17,07,25,12.70
2011,08,17,07,26,12.70
2011,08,17,07,27,12.70
2011,08,17,07,28,12.80
2011,08,17,07,29,12.80
2011,08,17,07,30,12.80
2011,08,17,07,31,12.90
2011,08,17,07,32,12.90
2011,08,17,07,33,12.90
2011,08,17,07,34,12.90
2011,08,17,07,35,13.00
2011,08,17,07,36,13.00
2011,08,17,07,37,13.00
2011,08,17,07,38,13.10
2011,08,17,07,39,13.10
2011,08,17,07,40,13.20
2011,08,17,07,41,13.20
2011,08,17,07,42,13.30
2011,08,17,07,43,13.40
2011,08,17,07,44,13.40
2011,08,17,07,45,13.50
2011,08,17,07,46,13.50
2011,08,17,07,47,13.60
2011,08,17,07,48,13.60
2011,08,17,07,49,13.70
2011,08,17,07,50,13.80
2011,08,17,07,51,13.80
2011,08,17,07,52,13.80
2011,08,17,07,53,13.90
2011,08,17,07,54,13.90
2011,08,17,07,55,13.90
2011,08,17,07,56,14.00
2011,08,17,07,57,14.00
2011,08,17,07,58,14.10
2011,08,17,07,59,14.10
2011,08,17,08,00,14.10
2011,08,17,08,01,14.20
2011,08,17,08,02,14.20
2011,08,17,08,03,14.30
2011,08,17,08,04,14.30
2011,08,17,08,05,14.40
2011,08,17,08,06,14.40
2011,08,17,08,07,14.50
2011,08,17,08,08,14.60
2011,08,17,08,09,14.70
2011,08,17,08,10,14.70
2011,08,17,08,11,14.80
2011,08,17,08,12,14.80
2011,08,17,08,13,14.80
2011,08,17,08,14,14.80
2011,08,17,08,15,14.80
2011,08,17,08,16,14.90
2011,08,17,08,17,14.90
2011,08,17,08,18,15.00
2011,08,17,08,19,15.10
2011,08,17,08,20,15.10
2011,08,17,08,21,15.20
2011,08,17,08,22,15.30
2011,08,17,08,23,15.40
2011,08,17,08,24,15.50
2011,08,17,08,25,15.60
2011,08,17,08,26,15.60
2011,08,17,08,27,15.60
2011,08,17,08,28,15.60
2011,08,17,08,29,15.60
2011,08,17,08,30,15.60
2011,08,17,08,31,15.60
2011,08,17,08,32,15.60
2011,08,17,08,33,15.60
2011,08,17,08,34,15.60
2011,08,17,08,35,15.70
2011,08,17,08,36,15.70
2011,08,17,08,37,15.80
2011,08,17,08,38,15.80
2011,08,17,08,39,15.80
2011,08,17,08,40,15.90
2011,08,17,08,41,15.90
2011,08,17,08,42,15.90
2011,08,17,08,43,15.80
2011,08,17,08,44,15.80
2011,08,17,08,45,15.80
2011,08,17,08,46,15.80
2011,08,17,08,47,15.80
2011,08,17,08,48,15.80
2011,08,17,08,49,15.80
2011,08,17,08,50,15.90
2011,08,17,08,51,15.90
2011,08,17,08,52,15.90
2011,08,17,08,53,15.90
2011,08,17,08,54,15.90
2011,08,17,08,55,16.00
2011,08,17,08,56,16.00
2011,08,17,08,57,16.00
2011,08,17,08,58,15.90
2011,08,17,08,59,15.90
2011,08,17,09,00,16.00
2011,08,17,09,01,16.10
2011,08,17,09,02,16.20
2011,08,17,09,03,16.20
2011,08,17,09,04,16.30
2011,08,17,09,05,16.30
2011,08,17,09,06,16.30
2011,08,17,09,07,16.30
2011,08,17,09,08,16.40
2011,08,17,09,09,16.50
2011,08,17,09,10,16.60
2011,08,17,09,11,16.70
2011,08,17,09,12,16.80
2011,08,17,09,13,16.90
2011,08,17,09,14,16.90
2011,08,17,09,15,16.80
2011,08,17,09,16,16.80
2011,08,17,09,17,16.80
2011,08,17,09,18,16.80
2011,08,17,09,19,16.80
2011,08,17,09,20,16.90
2011,08,17,09,21,16.80
2011,08,17,09,22,16.80
2011,08,17,09,23,16.80
2011,08,17,09,24,16.70
2011,08,17,09,25,16.70
2011,08,17,09,26,16.80
2011,08,17,09,27,16.90
2011,08,17,09,28,17.00
2011,08,17,09,29,17.10
2011,08,17,09,30,17.00
2011,08,17,09,31,17.00
2011,08,17,09,32,17.00
2011,08,17,09,33,17.00
2011,08,17,09,34,17.10
2011,08,17,09,35,17.20
2011,08,17,09,36,17.30
2011,08,17,09,37,17.20
2011,08,17,09,38,17.20
2011,08,17,09,39,17.20
2011,08,17,09,40,17.20
2011,08,17,09,41,17.20
2011,08,17,09,42,17.20
2011,08,17,09,43,17.30
2011,08,17,09,44,17.50
2011,08,17,09,45,17.50
2011,08,17,09,46,17.50
2011,08,17,09,47,17.40
2011,08,17,09,48,17.40
2011,08,17,09,49,17.40
2011,08,17,09,50,17.40
2011,08,17,09,51,17.40
2011,08,17,09,52,17.40
2011,08,17,09,53,17.50
2011,08,17,09,54,17.50
2011,08,17,09,55,17.60
2011,08,17,09,56,17.60
2011,08,17,09,57,17.70
2011,08,17,09,58,17.60
2011,08,17,09,59,17.60
2011,08,17,10,00,17.60
2011,08,17,10,01,17.60
2011,08,17,10,02,17.60
2011,08,17,10,03,17.60
2011,08,17,10,04,17.60
2011,08,17,10,05,17.60
2011,08,17,10,06,17.60
2011,08,17,10,07,17.70
2011,08,17,10,08,17.80
2011,08,17,10,09,17.90
2011,08,17,10,10,18.00
2011,08,17,10,11,18.10
2011,08,17,10,12,18.30
2011,08,17,10,13,18.40
2011,08,17,10,14,18.50
2011,08,17,10,15,18.70
2011,08,17,10,16,18.60
2011,08,17,10,17,18.60
2011,08,17,10,18,18.70
2011,08,17,10,19,18.80
2011,08,17,10,20,19.00
2011,08,17,10,21,19.00
2011,08,17,10,22,19.10
2011,08,17,10,23,19.10
2011,08,17,10,24,19.20
2011,08,17,10,25,19.20
2011,08,17,10,26,19.20
2011,08,17,10,27,19.20
2011,08,17,10,28,19.20
2011,08,17,10,29,19.20
2011,08,17,10,30,19.30
2011,08,17,10,31,19.20
2011,08,17,10,32,19.10
2011,08,17,10,33,19.00
2011,08,17,10,34,18.80
2011,08,17,10,35,18.80
2011,08,17,10,36,18.90
2011,08,17,10,37,19.00
2011,08,17,10,38,19.10
2011,08,17,10,39,19.10
2011,08,17,10,40,19.10
2011,08,17,10,41,19.20
2011,08,17,10,42,19.20
2011,08,17,10,43,19.10
2011,08,17,10,44,19.00
2011,08,17,10,45,18.90
2011,08,17,10,46,18.90
2011,08,17,10,47,18.80
2011,08,17,10,48,18.80
2011,08,17,10,49,18.80
2011,08,17,10,50,18.80
2011,08,17,10,51,18.70
2011,08,17,10,52,18.70
2011,08,17,10,53,18.80
2011,08,17,10,54,18.80
2011,08,17,10,55,18.80
2011,08,17,10,56,18.70
2011,08,17,10,57,18.60
2011,08,17,10,58,18.60
2011,08,17,10,59,18.60
2011,08,17,11,00,18.60
2011,08,17,11,01,18.70
2011,08,17,11,02,18.70
2011,08,17,11,03,18.70
2011,08,17,11,04,18.80
2011,08,17,11,05,18.80
2011,08,17,11,06,18.80
2011,08,17,11,07,18.70
2011,08,17,11,08,18.70
2011,08,17,11,09,18.60
2011,08,17,11,10,18.70
2011,08,17,11,11,18.70
2011,08,17,11,12,18.80
2011,08,17,11,13,18.80
2011,08,17,11,14,18.80
2011,08,17,11,15,19.00
2011,08,17,11,16,19.10
2011,08,17,11,17,19.20
2011,08,17,11,18,19.30
2011,08,17,11,19,19.40
2011,08,17,11,20,19.30
2011,08,17,11,21,19.20
2011,08,17,11,22,19.20
2011,08,17,11,23,19.10
2011,08,17,11,24,19.10
2011,08,17,11,25,19.00
2011,08,17,11,26,19.00
2011,08,17,11,27,19.00
2011,08,17,11,28,19.00
2011,08,17,11,29,19.00
2011,08,17,11,30,18.90
2011,08,17,11,31,19.00
2011,08,17,11,32,19.00
2011,08,17,11,33,19.00
2011,08,17,11,34,19.00
2011,08,17,11,35,18.90
2011,08,17,11,36,18.90
2011,08,17,11,37,18.80
2011,08,17,11,38,18.90
2011,08,17,11,39,19.10
2011,08,17,11,40,19.10
2011,08,17,11,41,19.10
2011,08,17,11,42,19.10
2011,08,17,11,43,19.00
2011,08,17,11,44,19.00
2011,08,17,11,45,18.80
2011,08,17,11,46,18.80
2011,08,17,11,47,18.80
2011,08,17,11,48,18.70
2011,08,17,11,49,18.70
2011,08,17,11,50,18.60
2011,08,17,11,51,18.60
2011,08,17,11,52,18.60
2011,08,17,11,53,18.60
2011,08,17,11,54,18.70
2011,08,17,11,55,18.80
2011,08,17,11,56,18.80
2011,08,17,11,57,18.80
2011,08,17,11,58,18.90
2011,08,17,11,59,18.90
2011,08,17,12,00,18.90
2011,08,17,12,01,18.90
2011,08,17,12,02,18.80
2011,08,17,12,03,18.70
2011,08,17,12,04,18.70
2011,08,17,12,05,18.80
2011,08,17,12,06,18.70
2011,08,17,12,07,18.60
2011,08,17,12,08,18.60
2011,08,17,12,09,18.60
2011,08,17,12,10,18.50
2011,08,17,12,11,18.60
2011,08,17,12,12,18.80
2011,08,17,12,13,18.80
2011,08,17,12,14,18.80
2011,08,17,12,15,18.80
2011,08,17,12,16,18.70
2011,08,17,12,17,18.70
2011,08,17,12,18,18.70
2011,08,17,12,19,18.60
2011,08,17,12,20,18.60
2011,08,17,12,21,18.60
2011,08,17,12,22,18.70
2011,08,17,12,23,18.90
2011,08,17,12,24,19.20
2011,08,17,12,25,19.40
2011,08,17,12,26,19.50
2011,08,17,12,27,19.60
2011,08,17,12,28,19.50
2011,08,17,12,29,19.40
2011,08,17,12,30,19.30
2011,08,17,12,31,19.30
2011,08,17,12,32,19.30
2011,08,17,12,33,19.50
2011,08,17,12,34,19.60
2011,08,17,12,35,19.60
2011,08,17,12,36,19.70
2011,08,17,12,37,19.90
2011,08,17,12,38,20.10
2011,08,17,12,39,20.20
2011,08,17,12,40,20.20
2011,08,17,12,41,20.20
2011,08,17,12,42,20.20
2011,08,17,12,43,20.20
2011,08,17,12,44,20.30
2011,08,17,12,45,20.40
2011,08,17,12,46,20.40
2011,08,17,12,47,20.30
2011,08,17,12,48,20.10
2011,08,17,12,49,20.10
2011,08,17,12,50,20.20
2011,08,17,12,51,20.20
2011,08,17,12,52,20.20
2011,08,17,12,53,20.40
2011,08,17,12,54,20.50
2011,08,17,12,55,20.60
2011,08,17,12,56,20.70
2011,08,17,12,57,20.80
2011,08,17,12,58,20.80
2011,08,17,12,59,20.90
2011,08,17,13,00,21.00
2011,08,17,13,01,21.00
2011,08,17,13,02,21.00
2011,08,17,13,03,21.00
2011,08,17,13,04,21.10
2011,08,17,13,05,21.00
2011,08,17,13,06,21.10
2011,08,17,13,07,21.00
2011,08,17,13,08,20.80
2011,08,17,13,09,20.70
2011,08,17,13,10,20.80
2011,08,17,13,11,20.90
2011,08,17,13,12,21.00
2011,08,17,13,13,21.10
2011,08,17,13,14,21.10
2011,08,17,13,15,21.20
2011,08,17,13,16,21.30
2011,08,17,13,17,21.50
2011,08,17,13,18,21.60
2011,08,17,13,19,21.60
2011,08,17,13,20,21.60
2011,08,17,13,21,21.60
2011,08,17,13,22,21.80
2011,08,17,13,23,21.80
2011,08,17,13,24,21.80
2011,08,17,13,25,21.70
2011,08,17,13,26,21.60
2011,08,17,13,27,21.70
2011,08,17,13,28,21.80
2011,08,17,13,29,21.80
2011,08,17,13,30,21.80
2011,08,17,13,31,21.80
2011,08,17,13,32,21.90
2011,08,17,13,33,21.80
2011,08,17,13,34,21.90
2011,08,17,13,35,21.90
2011,08,17,13,36,21.90
2011,08,17,13,37,22.00
2011,08,17,13,38,22.10
2011,08,17,13,39,22.10
2011,08,17,13,40,22.20
2011,08,17,13,41,22.40
2011,08,17,13,42,22.40
2011,08,17,13,43,22.40
2011,08,17,13,44,22.40
2011,08,17,13,45,22.40
2011,08,17,13,46,22.30
2011,08,17,13,47,22.40
2011,08,17,13,48,22.50
2011,08,17,13,49,22.60
2011,08,17,13,50,22.60
2011,08,17,13,51,22.50
2011,08,17,13,52,22.50
2011,08,17,13,53,22.50
2011,08,17,13,54,22.60
2011,08,17,13,55,22.70
2011,08,17,13,56,22.60
2011,08,17,13,57,22.60
2011,08,17,13,58,22.60
2011,08,17,13,59,22.60
2011,08,17,14,00,22.70
2011,08,17,14,01,22.80
2011,08,17,14,02,22.80
2011,08,17,14,03,23.00
2011,08,17,14,04,23.00
2011,08,17,14,05,22.90
2011,08,17,14,06,22.80
2011,08,17,14,07,22.70
2011,08,17,14,08,22.60
2011,08,17,14,09,22.60
2011,08,17,14,10,22.60
2011,08,17,14,11,22.60
2011,08,17,14,12,22.60
2011,08,17,14,13,22.70
2011,08,17,14,14,22.80
2011,08,17,14,15,22.90
2011,08,17,14,16,22.90
2011,08,17,14,17,22.90
2011,08,17,14,18,22.80
2011,08,17,14,19,22.70
2011,08,17,14,20,22.70
2011,08,17,14,21,22.70
2011,08,17,14,22,22.70
2011,08,17,14,23,22.70
2011,08,17,14,24,22.80
2011,08,17,14,25,22.80
2011,08,17,14,26,23.00
2011,08,17,14,27,23.10
2011,08,17,14,28,23.20
2011,08,17,14,29,23.20
2011,08,17,14,30,23.30
2011,08,17,14,31,23.30
2011,08,17,14,32,23.20
2011,08,17,14,33,23.20
2011,08,17,14,34,23.10
2011,08,17,14,35,23.00
2011,08,17,14,36,23.00
2011,08,17,14,37,23.00
2011,08,17,14,38,23.10
2011,08,17,14,39,23.10
2011,08,17,14,40,23.10
2011,08,17,14,41,23.10
2011,08,17,14,42,23.10
2011,08,17,14,43,23.10
2011,08,17,14,44,23.00
2011,08,17,14,45,22.90
2011,08,17,14,46,22.70
2011,08,17,14,47,22.60
2011,08,17,14,48,22.50
2011,08,17,14,49,22.40
2011,08,17,14,50,22.40
2011,08,17,14,51,22.40
2011,08,17,14,52,22.40
2011,08,17,14,53,22.40
2011,08,17,14,54,22.40
2011,08,17,14,55,22.40
2011,08,17,14,56,22.40
2011,08,17,14,57,22.40
2011,08,17,14,58,22.30
2011,08,17,14,59,22.30
2011,08,17,15,00,22.30
2011,08,17,15,01,22.30
2011,08,17,15,02,22.40
2011,08,17,15,03,22.50
2011,08,17,15,04,22.50
2011,08,17,15,05,22.60
2011,08,17,15,06,22.60
2011,08,17,15,07,22.60
2011,08,17,15,08,22.50
2011,08,17,15,09,22.40
2011,08,17,15,10,22.30
2011,08,17,15,11,22.30
2011,08,17,15,12,22.20
2011,08,17,15,13,22.20
2011,08,17,15,14,22.20
2011,08,17,15,15,22.20
2011,08,17,15,16,22.20
2011,08,17,15,17,22.20
2011,08,17,15,18,22.20
2011,08,17,15,19,22.20
2011,08,17,15,20,22.20
2011,08,17,15,21,22.10
2011,08,17,15,22,22.20
2011,08,17,15,23,22.20
2011,08,17,15,24,22.10
2011,08,17,15,25,22.00
2011,08,17,15,26,22.00
2011,08,17,15,27,22.00
2011,08,17,15,28,22.00
2011,08,17,15,29,22.00
2011,08,17,15,30,22.00
2011,08,17,15,31,22.00
2011,08,17,15,32,21.90
2011,08,17,15,33,21.80
2011,08,17,15,34,21.80
2011,08,17,15,35,21.80
2011,08,17,15,36,21.80
2011,08,17,15,37,21.80
2011,08,17,15,38,21.80
2011,08,17,15,39,21.70
2011,08,17,15,40,21.70
2011,08,17,15,41,21.70
2011,08,17,15,42,21.80
2011,08,17,15,43,21.80
2011,08,17,15,44,21.80
2011,08,17,15,45,21.80
2011,08,17,15,46,21.80
2011,08,17,15,47,21.80
2011,08,17,15,48,21.80
2011,08,17,15,49,21.80
2011,08,17,15,50,21.90
2011,08,17,15,51,22.00
2011,08,17,15,52,22.00
2011,08,17,15,53,22.00
2011,08,17,15,54,22.10
2011,08,17,15,55,22.10
2011,08,17,15,56,22.10
2011,08,17,15,57,22.00
2011,08,17,15,58,21.90
2011,08,17,15,59,21.80
2011,08,17,16,00,21.70
2011,08,17,16,01,21.60
2011,08,17,16,02,21.50
2011,08,17,16,03,21.50
2011,08,17,16,04,21.50
2011,08,17,16,05,21.50
2011,08,17,16,06,21.50
2011,08,17,16,07,21.40
2011,08,17,16,08,21.50
2011,08,17,16,09,21.50
2011,08,17,16,10,21.50
2011,08,17,16,11,21.50
2011,08,17,16,12,21.40
2011,08,17,16,13,21.40
2011,08,17,16,14,21.40
2011,08,17,16,15,21.40
2011,08,17,16,16,21.40
2011,08,17,16,17,21.50
2011,08,17,16,18,21.60
2011,08,17,16,19,21.70
2011,08,17,16,20,21.70
2011,08,17,16,21,21.70
2011,08,17,16,22,21.70
2011,08,17,16,23,21.70
2011,08,17,16,24,21.70
2011,08,17,16,25,21.60
2011,08,17,16,26,21.50
2011,08,17,16,27,21.40
2011,08,17,16,28,21.30
2011,08,17,16,29,21.20
2011,08,17,16,30,21.10
2011,08,17,16,31,21.00
2011,08,17,16,32,20.90
2011,08,17,16,33,20.80
2011,08,17,16,34,20.80
2011,08,17,16,35,20.70
2011,08,17,16,36,20.70
2011,08,17,16,37,20.70
2011,08,17,16,38,20.70
2011,08,17,16,39,20.70
2011,08,17,16,40,20.80
2011,08,17,16,41,20.80
2011,08,17,16,42,20.90
2011,08,17,16,43,20.90
2011,08,17,16,44,20.90
2011,08,17,16,45,21.00
2011,08,17,16,46,21.00
2011,08,17,16,47,21.10
2011,08,17,16,48,21.10
2011,08,17,16,49,21.10
2011,08,17,16,50,21.10
2011,08,17,16,51,21.10
2011,08,17,16,52,21.00
2011,08,17,16,53,21.00
2011,08,17,16,54,21.00
2011,08,17,16,55,21.00
2011,08,17,16,56,21.00
2011,08,17,16,57,21.10
2011,08,17,16,58,21.20
2011,08,17,16,59,21.20
2011,08,17,17,00,21.20
2011,08,17,17,01,21.20
2011,08,17,17,02,21.20
2011,08,17,17,03,21.20
2011,08,17,17,04,21.20
2011,08,17,17,05,21.30
2011,08,17,17,06,21.30
2011,08,17,17,07,21.40
2011,08,17,17,08,21.40
2011,08,17,17,09,21.50
2011,08,17,17,10,21.50
2011,08,17,17,11,21.50
2011,08,17,17,12,21.60
2011,08,17,17,13,21.60
2011,08,17,17,14,21.60
2011,08,17,17,15,21.60
2011,08,17,17,16,21.60
2011,08,17,17,17,21.60
2011,08,17,17,18,21.60
2011,08,17,17,19,21.60